Find Starlink 36419

NORAD ID: 67584 Int'l Des: 2026-016 Owner: SPXS Country: US Constellation: starlink operational
LEOCIRCULARRETROGRADE

当前视图

正在加载3D地球...

关于 Starlink 36419

正在加载描述...

即将过境

Passes for default location (London). Set your location on the main map for personalized predictions.

高度历史

Loading altitude history...

两行轨道根数

1 67584U 26016Z 26146.43510000 .00013620 00000-0 42341-3 0 9996
2 67584 97.2859 206.8215 0000164 168.7738 191.3509 15.33448507 18789
Epoch: May 26, 2026 • Age: 13 hours

当前状态

高度 468.5 km
速度 7.63 km/s
星下点 1.52°N, 22.05°W
发射日期 Jan 25, 2026
运行时间 0.3 years
类型 internet

技术详情

分类 Payload
质量 575.00 kg
干质量 530.00 kg
总质量 575.00 kg
长度 0.30 m
直径 4.10 m
跨度 29.00 m
形状 Box + pan
制造商 SPXS
平台类型 Starlink V2MO
阶段状态 In Orbit
所有者/国家 SPXS/US

Most Searched